Погода в Афонино

Россия / Нижегородская область     56°16′00″N   44°05′37″E
темп.,
°C
ветер,
м/с
пор.,
м/с
влажн.,
%
обл.,
%
осадки,
мм/ч
давл.,
гПа
погр.,
м
17 мая, пн
пн1700:00+17з11731 0.0 101411
03:00+16св117899 0.0 101611
06:00+17вюв1276100 0.0 101795
09:00+22в125836 0.0 1017413
12:00+25вюв234496 0.0 10161048
15:00+27юв33506 0.0 10161292
18:00+26вюв246195 0.0 1015577
21:00+21вюв368099 0.1 1016130
18 мая, вт
вт1800:00+19вюв2586100 0.1 1016110
03:00+17вюв2279100 0.1 101615
06:00+19в2577100 0.0 1016133
09:00+22вюв476394 0.0 1016331
12:00+27юв574581 0.0 10161015
15:00+28юв574192 0.0 10151439
18:00+26вюв494850 0.0 1015692
21:00+21вюв3116553 0.0 1015245
19 мая, ср
ср1900:00+19вюв412625 0.0 1015263
03:00+17вюв412761 0.0 1015263
06:00+19вюв412776 0.0 1015339
09:00+23вюв595726 0.0 1015464
12:00+27юв69452 0.0 10151019
15:00+28юв69452 0.0 10141537
18:00+25вюв610620 0.0 1014804
21:00+21вюв513680 0.0 1014421
20 мая, чт
чт2000:00+18вюв413715 0.0 1014366
03:00+17вюв3107213 0.0 1013252
06:00+18вюв515720 0.0 1013469
09:00+22юв712582 0.0 1013806
12:00+25юв7115394 0.0 10141202
15:00+25ююв71255100 0.0 10131823
18:00+22ю51169100 0.5 10141176
21:00+19ююв3881100 0.7 1014287
21 мая, пт
пт2100:00+17ю3881100 0.1 1015337
03:00+15ю398886 0.4 1015298
06:00+16ю49840 0.0 1016444
09:00+19ююз686966 0.0 10161122
12:00+20юз6854100 0.1 10171506
15:00+21зюз574799 0.1 10181451
18:00+20юз465949 0.0 1018958
21:00+16юз247699 0.0 1019152